Location: Alulod
(14.2076°N, 120.8898°E)
Time: 02:02:56
(UTC+00:00)

USA 238 DEB - Pass Details

Date: 16 March 2026
Orbit: 883 x 1328 km, 63.4° (Epoch: 10 January)

Event Time Altitude Azimuth Distance (km) Brightness Sun altitude
Rises 20:54:11 0° 341° (NNW) 4,173 6.6 -17.5°
Reaches altitude 10° 20:56:57 10° 345° (NNW) 3,251 6.1 -16.8°
Maximum altitude 21:04:53 64° 65° (ENE) 1,438 4.6 -14.9°
Drops below altitude 10° 21:13:02 10° 145° (SE) 3,347 6.7 -12.9°
Sets 21:15:54 0° 148° (SSE) 4,302 7.3 -12.3°
